South Lake Tahoe, CA

2:00 PM PST on February 20, 2018 (GMT -0800)
Lake Tahoe

Weather History for KTVL - September, 2011

Change the Weather History Date:

Saturday, September 17, 2011

  Actual Average Record
Temperature  
Mean Temperature 53 °F 54 °F  
Max Temperature 72 °F 73 °F 82 °F (1937)
Min Temperature 34 °F 34 °F 25 °F (1996)
Degree Days  
Heating Degree Days 12 11  
Month to date heating degree days 104 158  
Since 1 July heating degree days 368 454  
Cooling Degree Days 0 0  
Month to date cooling degree days 0 0  
Year to date cooling degree days 19 30  
Growing Degree Days 2 (Base 50)    
Moisture  
Dew Point 35 °F    
Average Humidity 53    
Maximum Humidity 82    
Minimum Humidity 24    
Precipitation  
Precipitation 0.00 in - 0.94 in (1989)
Month to date precipitation 0.35  
Year to date precipitation 13.62  
Snow  
Snow 0.00 in - - ()
Month to date snowfall 0.0  
Snow Depth 0.00 in    
Sea Level Pressure  
Sea Level Pressure 30.11 in    
Wind  
Wind Speed 3 mph (SSE)    
Max Wind Speed 10 mph    
Max Gust Speed 15 mph    
Visibility 10 miles    
Events      
T = Trace of Precipitation, MM = Missing Value Source: NWS Daily Summary

Daily Weather History Graph

Daily Weather History Graph

Search for Another Location

Airport or City:

Trip Planner

Search our weather history database for the weather conditions in past years. The results will help you decide how hot, cold, wet, or windy it might be!

Date:

Astronomy

Sep. 17, 2011 Rise Set
Actual Time 6:43 AM PDT 7:05 PM PDT
Civil Twilight 6:16 AM PDT 7:31 PM PDT
Nautical Twilight 5:44 AM PDT 8:03 PM PDT
Astronomical Twilight 5:12 AM PDT 8:35 PM PDT
Moon 9:42 PM PDT (9/17) 11:46 AM PDT (9/17)
Length of Visible Light 13h 15m
Length of Day
12h 22m
Waning Gibbous, 76% of the Moon is Illuminated
Sep 17
Waning Gibbous
Sep 20
Last Quarter
Sep 27
New
Oct 3
First Quarter
Oct 11
Full

Hourly Weather History & Observations

Time (PDT) Temp. Windchill Dew Point Humidity Pressure Visibility Wind Dir Wind Speed Gust Speed Precip Events Conditions
12:53 AM 41.0 °F - 35.1 °F 79% 30.03 in 10.0 mi Calm Calm - N/A   Clear
1:53 AM 39.9 °F 37.8 °F 34.0 °F 79% 30.02 in 10.0 mi SSW 3.5 mph - N/A   Clear
2:53 AM 39.0 °F 35.7 °F 33.1 °F 79% 30.03 in 10.0 mi South 4.6 mph - N/A   Clear
3:53 AM 37.4 °F - 32.0 °F 81% 30.16 in 10.0 mi Calm Calm - N/A   Clear
4:53 AM 36.0 °F 33.3 °F 30.9 °F 82% 30.05 in 10.0 mi South 3.5 mph - N/A   Clear
5:53 AM 35.1 °F - 30.0 °F 82% 30.08 in 10.0 mi Calm Calm - N/A   Clear
6:53 AM 34.0 °F 28.8 °F 28.9 °F 82% 30.10 in 10.0 mi South 5.8 mph - N/A   Clear
7:53 AM 37.9 °F 35.5 °F 32.0 °F 79% 30.11 in 10.0 mi South 3.5 mph - N/A   Clear
8:53 AM 48.9 °F - 34.0 °F 56% 30.09 in 10.0 mi South 3.5 mph - N/A   Clear
9:53 AM 60.1 °F - 32.0 °F 35% 30.09 in 10.0 mi NE 3.5 mph - N/A   Clear
10:53 AM 64.4 °F - 28.4 °F 26% 30.21 in 10.0 mi Variable 4.6 mph - N/A   Clear
11:53 AM 66.9 °F - 33.1 °F 28% 30.08 in 10.0 mi NNE 6.9 mph - N/A   Clear
12:53 PM 69.1 °F - 33.1 °F 26% 30.08 in 10.0 mi Variable 4.6 mph - N/A   Clear
1:53 PM 69.1 °F - 34.0 °F 27% 30.08 in 10.0 mi Variable 4.6 mph - N/A   Clear
2:53 PM 71.1 °F - 34.0 °F 26% 30.07 in 10.0 mi Variable 3.5 mph - N/A   Clear
3:53 PM 71.1 °F - 32.0 °F 24% 30.08 in 10.0 mi NNE 8.1 mph - N/A   Clear
4:53 PM 69.8 °F - 37.4 °F 31% 30.20 in 10.0 mi NNE 6.9 mph - N/A   Clear
5:53 PM 66.9 °F - 37.0 °F 33% 30.11 in 10.0 mi North 3.5 mph - N/A   Clear
6:53 PM 60.1 °F - 41.0 °F 49% 30.13 in 10.0 mi Calm Calm - N/A   Clear
7:53 PM 55.9 °F - 41.0 °F 57% 30.15 in 10.0 mi Calm Calm - N/A   Clear
8:53 PM 53.1 °F - 42.1 °F 66% 30.15 in 10.0 mi Calm Calm - N/A   Clear
9:53 PM 50.0 °F - 41.0 °F 71% 30.14 in 10.0 mi Calm Calm - N/A   Clear
10:53 PM 48.0 °F - 39.9 °F 74% 30.15 in 10.0 mi SSW 3.5 mph - N/A   Clear
11:53 PM 46.9 °F - 39.9 °F 77% 30.15 in 10.0 mi Calm Calm - N/A   Clear